CW4778 Weather Reports


time (UTC)temp
C
wind
direction
speed
KPH
gust
KPH
rain 1hr
cm
rain 24hr
cm
rain mn
cm
humidity
%
barometer
mb
20260505024805 18 82 6.4 14.5 0.00 0.00 0.00 84 1031.9
20260505024305 18 82 12.9 20.9 0.00 0.00 0.00 83 1031.9
20260505023805 18 86 11.3 22.5 0.00 0.00 0.00 84 1031.9
20260505022805 18 103 11.3 19.3 0.00 0.00 0.00 85 1032.1
20260505022305 17 92 11.3 19.3 0.00 0.00 0.00 85 1032.1
20260505021305 17 83 14.5 19.3 0.00 0.00 0.00 84 1032.1
20260505020805 18 77 11.3 22.5 0.00 0.00 0.00 83 1032.1
20260505020305 18 74 14.5 22.5 0.00 0.00 0.00 83 1032.1
20260505015305 18 81 11.3 22.5 0.00 0.00 0.00 83 1032.1
20260505013805 18 102 16.1 25.7 0.00 0.00 0.00 83 1032.2
20260505012805 18 85 11.3 25.7 0.00 0.00 0.00 83 1032.2
20260505012305 18 88 11.3 20.9 0.00 0.00 0.00 83 1032.2
20260505010804 18 95 14.5 20.9 0.00 0.00 0.00 83 1032.5
20260505010305 18 107 16.1 22.5 0.00 0.00 0.00 82 1032.5
20260505005805 18 106 16.1 22.5 0.00 0.00 0.00 82 1032.7
20260505004805 18 102 14.5 19.3 0.00 0.00 0.00 83 1032.8
20260505003804 18 99 11.3 24.1 0.00 0.00 0.00 84 1032.9
20260505003305 18 98 16.1 20.9 0.00 0.00 0.00 85 1033.0
20260505002804 18 94 14.5 22.5 0.00 0.00 0.00 84 1033.1
20260505001805 18 98 16.1 22.5 0.00 0.00 0.00 84 1033.2
20260505000805 18 81 11.3 19.3 0.00 0.00 0.00 83 1033.3
20260505000305 18 82 11.3 16.1 0.00 0.00 0.00 84 1033.3
20260504234805 18 110 14.5 20.9 0.00 0.00 0.00 84 1033.5
20260504232805 19 106 12.9 25.7 0.00 0.00 0.00 82 1033.7
20260504232305 19 111 16.1 24.1 0.00 0.00 0.00 82 1033.7
20260504231804 18 93 11.3 19.3 0.00 0.00 0.00 83 1033.8
20260504231304 18 105 16.1 22.5 0.00 0.00 0.00 83 1033.8
20260504230305 17 84 8.0 16.1 0.00 0.00 0.00 85 1034.0
20260504225805 18 76 11.3 20.9 0.00 0.00 0.00 84 1034.1
20260504225305 17 71 9.7 14.5 0.00 0.00 0.00 85 1034.1
20260504224805 17 92 9.7 14.5 0.00 0.00 0.00 85 1034.2
20260504224305 17 99 14.5 16.1 0.00 0.00 0.00 86 1034.3
20260504223805 17 98 6.4 14.5 0.00 0.00 0.00 88 1034.3
20260504223305 17 100 9.7 12.9 0.00 0.00 0.00 86 1034.3
20260504222805 17 109 16.1 20.9 0.00 0.00 0.00 86 1034.3
20260504222305 17 105 14.5 19.3 0.00 0.00 0.00 86 1034.3
20260504221805 16 109 11.3 22.5 0.00 0.00 0.00 86 1034.2
20260504220805 16 82 8.0 12.9 0.00 0.00 0.00 86 1034.3
20260504220305 16 92 9.7 20.9 0.00 0.00 0.00 86 1034.3
20260504215305 16 91 8.0 19.3 0.00 0.00 0.00 87 1034.3
20260504213304 16 96 8.0 11.3 0.00 0.00 0.00 87 1034.3
20260504212804 16 102 4.8 9.7 0.00 0.00 0.00 86 1034.3
20260504211805 16 104 3.2 9.7 0.00 0.00 0.00 87 1034.3
20260504211304 16 120 4.8 9.7 0.00 0.00 0.00 87 1034.3
20260504210805 16 165 3.2 8.0 0.00 0.00 0.00 85 1034.3
20260504210304 16 181 4.8 9.7 0.00 0.00 0.00 85 1034.3
20260504204305 15 154 8.0 12.9 0.00 0.00 0.00 88 1034.3
20260504203804 14 148 9.7 12.9 0.00 0.00 0.00 88 1034.4
20260504202305 13 152 8.0 14.5 0.00 0.00 0.00 89 1034.4
20260504201805 13 157 6.4 11.3 0.00 0.00 0.00 90 1034.3
20260504201305 13 168 6.4 9.7 0.00 0.00 0.00 89 1034.3
20260504195304 13 176 8.0 12.9 0.00 0.00 0.00 89 1034.2
20260504194805 13 176 8.0 12.9 0.00 0.00 0.00 89 1034.1
20260504191305 13 200 8.0 12.9 0.00 0.00 0.00 89 1034.2
20260504190805 13 201 6.4 11.3 0.00 0.00 0.00 89 1034.1
20260504190304 13 203 3.2 9.7 0.00 0.00 0.00 89 1034.1
20260504185305 13 203 8.0 11.3 0.00 0.00 0.00 89 1034.0
20260504184804 13 190 9.7 11.3 0.00 0.00 0.00 89 1034.0
20260504182304 13 193 4.8 9.7 0.00 0.00 0.00 89 1033.9
20260504181305 13 196 4.8 9.7 0.00 0.00 0.00 89 1034.0
20260504180804 13 197 8.0 9.7 0.00 0.00 0.00 89 1033.9
20260504180304 13 198 8.0 11.3 0.00 0.00 0.00 89 1033.9
20260504175804 13 200 9.7 11.3 0.00 0.00 0.00 89 1033.9
20260504174804 13 189 8.0 9.7 0.00 0.00 0.00 89 1033.9
20260504174305 13 189 8.0 9.7 0.00 0.00 0.00 89 1033.9
20260504173804 13 175 4.8 9.7 0.00 0.00 0.00 89 1033.9
20260504170305 12 168 4.8 8.0 0.00 0.00 0.00 89 1033.8
20260504160304 12 174 4.8 11.3 0.00 0.00 0.00 88 1033.7
20260504141304 13 131 4.8 11.3 0.00 0.00 0.00 84 1034.7
20260504140805 13 115 3.2 4.8 0.00 0.00 0.00 84 1034.7
20260504100305 15 116 9.7 19.3 0.00 0.00 0.00 80 1035.3
20260504081804 13 119 9.7 12.9 0.00 0.00 0.00 82 1035.2
20260504081304 13 125 8.0 14.5 0.00 0.00 0.00 82 1035.2
20260504080305 13 121 6.4 9.7 0.00 0.00 0.00 82 1035.2
20260504045304 16 85 4.8 11.3 0.00 0.00 0.00 75 1033.9
20260504044804 16 89 8.0 11.3 0.00 0.00 0.00 74 1033.9
20260504044305 16 98 12.9 14.5 0.00 0.00 0.00 74 1033.9
20260504042804 16 110 11.3 16.1 0.00 0.00 0.00 73 1033.9
20260504040305 16 107 12.9 19.3 0.00 0.00 0.00 73 1034.2
20260504035804 16 88 9.7 19.3 0.00 0.00 0.00 73 1034.3
20260504034305 17 78 8.0 14.5 0.00 0.00 0.00 74 1034.2
20260504033804 17 81 9.7 16.1 0.00 0.00 0.00 74 1034.2
20260504033305 17 96 11.3 16.1 0.00 0.00 0.00 73 1034.2
20260504031804 17 62 11.3 16.1 0.00 0.00 0.00 72 1034.2
20260504030304 17 65 11.3 16.1 0.00 0.00 0.00 72 1034.2
20260504025305 17 68 4.8 11.3 0.00 0.00 0.00 73 1034.2